Scottsbluff, NE

11:35 PM MDT on May 20, 2018 (GMT -0600)
Heilig

Weather History for KBFF - January, 2007

Change the Weather History Date:

Monday, January 8, 2007

  Actual Average Record
Temperature  
Mean Temperature 36 °F 27 °F  
Max Temperature 44 °F 40 °F 66 °F (2002)
Min Temperature 28 °F 13 °F -21 °F (1979)
Degree Days  
Heating Degree Days 29 38  
Month to date heating degree days 301 309  
Since 1 July heating degree days 3113 3081  
Cooling Degree Days 0 0  
Month to date cooling degree days 0 0  
Year to date cooling degree days 0 0  
Moisture  
Dew Point 22 °F    
Average Humidity 57    
Maximum Humidity 69    
Minimum Humidity 45    
Precipitation  
Precipitation 0.00 in 0.01 in 0.38 in (1985)
Month to date precipitation 0.00 0.11  
Year to date precipitation 0.00 0.11  
Snow  
Snow 0.00 in 0.20 in 4.00 in (1942)
Month to date snowfall 0.0 1.5  
Since 1 July snowfall 19.3 17.5  
Snow Depth 0.00 in    
Sea Level Pressure  
Sea Level Pressure 30.25 in    
Wind  
Wind Speed 18 mph (NW)    
Max Wind Speed 32 mph    
Max Gust Speed 43 mph    
Visibility 10 miles    
Events      
T = Trace of Precipitation, MM = Missing Value Source: NWS Daily Summary

Daily Weather History Graph

Daily Weather History Graph

Search for Another Location

Airport or City:

Astronomy

Jan. 08, 2007 Rise Set
Actual Time 7:21 AM MST 4:40 PM MST
Civil Twilight 6:50 AM MST 5:11 PM MST
Nautical Twilight 6:15 AM MST 5:46 PM MST
Astronomical Twilight 5:42 AM MST 6:20 PM MST
Moon 10:09 PM MST (1/8) 10:14 AM MST (1/8)
Length of Visible Light 10h 21m
Length of Day
9h 18m
Waning Gibbous, 75% of the Moon is Illuminated
Jan 8
Waning Gibbous
Jan 11
Last Quarter
Jan 18
New
Jan 25
First Quarter
Feb 1
Full

Hourly Weather History & Observations

Time (MST) Temp. Windchill Dew Point Humidity Pressure Visibility Wind Dir Wind Speed Gust Speed Precip Events Conditions
12:54 AM 33.1 °F 21.5 °F 18.0 °F 54% 30.00 in 10.0 mi WNW 19.6 mph 29.9 mph N/A   Overcast
1:54 AM 35.1 °F 22.7 °F 19.0 °F 52% 30.00 in 10.0 mi WNW 25.3 mph 35.7 mph N/A   Overcast
2:54 AM 33.1 °F 22.2 °F 19.0 °F 56% 30.01 in 10.0 mi West 17.3 mph 25.3 mph N/A   Partly Cloudy
3:54 AM 34.0 °F 24.2 °F 19.9 °F 56% 30.04 in 10.0 mi West 15.0 mph - N/A   Clear
4:54 AM 33.1 °F 22.6 °F 19.9 °F 59% 30.06 in 10.0 mi West 16.1 mph 25.3 mph N/A   Clear
5:54 AM 35.1 °F 23.0 °F 21.0 °F 57% 30.08 in 10.0 mi WNW 24.2 mph 34.5 mph N/A   Clear
6:54 AM 36.0 °F 23.9 °F 23.0 °F 59% 30.11 in 10.0 mi WNW 25.3 mph 33.4 mph N/A   Overcast
7:54 AM 36.0 °F 24.4 °F 24.1 °F 62% 30.14 in 10.0 mi WNW 23.0 mph 31.1 mph N/A   Mostly Cloudy
8:54 AM 37.9 °F 27.1 °F 25.0 °F 60% 30.16 in 10.0 mi WNW 23.0 mph 32.2 mph N/A   Mostly Cloudy
9:54 AM 39.0 °F 28.5 °F 25.0 °F 57% 30.19 in 10.0 mi WNW 23.0 mph 31.1 mph N/A   Mostly Cloudy
10:54 AM 39.9 °F 30.0 °F 26.1 °F 58% 30.19 in 10.0 mi West 21.9 mph 32.2 mph N/A   Scattered Clouds
11:54 AM 41.0 °F 32.8 °F 26.1 °F 55% 30.19 in 10.0 mi WNW 16.1 mph 27.6 mph N/A   Overcast
12:54 PM 44.1 °F 35.7 °F 24.1 °F 45% 30.19 in 10.0 mi NNW 20.7 mph 26.5 mph N/A   Mostly Cloudy
1:54 PM 41.0 °F 30.5 °F 26.1 °F 55% 30.23 in 10.0 mi NNW 26.5 mph 38.0 mph N/A   Scattered Clouds
2:54 PM 42.1 °F 32.3 °F 25.0 °F 51% 30.24 in 10.0 mi NNW 24.2 mph 33.4 mph N/A   Clear
3:54 PM 37.9 °F 28.9 °F 25.0 °F 60% 30.30 in 10.0 mi North 16.1 mph - N/A   Clear
4:54 PM 36.0 °F 28.5 °F 26.1 °F 67% 30.35 in 10.0 mi NNW 10.4 mph - N/A   Overcast
5:54 PM 34.0 °F 28.8 °F 24.1 °F 67% 30.40 in 10.0 mi WNW 5.8 mph - N/A   Overcast
6:54 PM 33.1 °F 25.5 °F 23.0 °F 66% 30.45 in 10.0 mi NW 9.2 mph - N/A   Overcast
7:54 PM 30.9 °F 20.2 °F 21.9 °F 69% 30.48 in 10.0 mi NW 15.0 mph - N/A   Mostly Cloudy
8:54 PM 30.0 °F 19.5 °F 19.9 °F 66% 30.50 in 10.0 mi NW 13.8 mph 19.6 mph N/A   Overcast
9:54 PM 28.9 °F 19.2 °F 18.0 °F 64% 30.52 in 10.0 mi NW 11.5 mph - N/A   Overcast
10:54 PM 28.0 °F 17.5 °F 17.1 °F 63% 30.54 in 10.0 mi NW 12.7 mph - N/A   Overcast
11:54 PM 28.0 °F 18.1 °F 18.0 °F 66% 30.53 in 10.0 mi WNW 11.5 mph - N/A   Overcast